TimeAKDT,TemperatureF,Dew PointF,Humidity,Sea Level PressureIn,VisibilityMPH,Wind Direction,Wind SpeedMPH,Gust SpeedMPH,PrecipitationIn,Events,Conditions,WindDirDegrees,DateUTC
12:53 AM,48.9,46.9,93,29.74,10.0,Calm,Calm,-,N/A,,Clear,0,2013-08-08 08:53:00
1:53 AM,46.9,45.0,93,29.74,9.0,Variable,3.5,-,N/A,,Clear,0,2013-08-08 09:53:00
2:53 AM,46.0,44.1,93,29.74,6.0,South,3.5,-,N/A,,Clear,170,2013-08-08 10:53:00
3:29 AM,44.6,44.6,100,29.73,6.0,Calm,Calm,-,N/A,,Partly Cloudy,0,2013-08-08 11:29:00
3:53 AM,46.0,44.1,93,29.73,6.0,Calm,Calm,-,N/A,,Clear,0,2013-08-08 11:53:00
4:27 AM,44.6,44.6,100,29.72,5.0,Calm,Calm,-,N/A,,Partly Cloudy,0,2013-08-08 12:27:00
4:46 AM,44.6,44.6,100,29.72,2.5,Calm,Calm,-,N/A,,Mist,0,2013-08-08 12:46:00
4:53 AM,45.0,44.1,97,29.73,6.0,Calm,Calm,-,N/A,,Mist,0,2013-08-08 12:53:00
5:15 AM,44.6,42.8,93,29.72,5.0,Calm,Calm,-,N/A,,Partly Cloudy,0,2013-08-08 13:15:00
5:53 AM,45.0,44.1,97,29.73,7.0,Calm,Calm,-,N/A,,Clear,0,2013-08-08 13:53:00
6:53 AM,52.0,50.0,93,29.72,10.0,Calm,Calm,-,N/A,,Clear,0,2013-08-08 14:53:00
7:53 AM,57.0,53.1,87,29.72,10.0,Calm,Calm,-,N/A,,Clear,0,2013-08-08 15:53:00
8:53 AM,60.1,54.0,80,29.71,10.0,Calm,Calm,-,N/A,,Clear,0,2013-08-08 16:53:00
9:53 AM,63.0,55.9,78,29.71,10.0,Calm,Calm,-,N/A,,Clear,0,2013-08-08 17:53:00
10:53 AM,71.1,52.0,51,29.70,10.0,SE,4.6,-,N/A,,Clear,130,2013-08-08 18:53:00
11:53 AM,73.9,46.9,38,29.70,10.0,SE,8.1,-,0.01,,Clear,140,2013-08-08 19:53:00
12:53 PM,75.9,46.9,36,29.70,10.0,SE,8.1,-,N/A,,Clear,140,2013-08-08 20:53:00
1:53 PM,80.1,46.0,30,29.69,10.0,Variable,6.9,-,N/A,,Clear,0,2013-08-08 21:53:00
2:53 PM,77.0,45.0,32,29.70,10.0,ESE,8.1,19.6,N/A,,Clear,120,2013-08-08 22:53:00
3:53 PM,77.0,45.0,32,29.70,10.0,Variable,5.8,-,N/A,,Clear,0,2013-08-08 23:53:00
4:53 PM,77.0,44.1,31,29.70,10.0,SSE,5.8,-,N/A,,Clear,160,2013-08-09 00:53:00
5:53 PM,75.0,44.1,33,29.71,10.0,SE,12.7,23.0,N/A,,Scattered Clouds,130,2013-08-09 01:53:00
6:53 PM,71.1,45.0,39,29.73,10.0,SE,5.8,-,N/A,,Partly Cloudy,130,2013-08-09 02:53:00
7:53 PM,70.0,45.0,41,29.72,10.0,ESE,8.1,-,N/A,,Mostly Cloudy,120,2013-08-09 03:53:00
8:53 PM,69.1,44.1,40,29.72,10.0,SE,9.2,17.3,N/A,,Scattered Clouds,140,2013-08-09 04:53:00
9:53 PM,66.9,45.0,45,29.73,10.0,SE,5.8,-,N/A,,Mostly Cloudy,140,2013-08-09 05:53:00
10:53 PM,64.9,46.0,50,29.73,10.0,Calm,Calm,-,N/A,,Overcast,0,2013-08-09 06:53:00
11:53 PM,64.9,46.9,52,29.74,10.0,Variable,4.6,-,N/A,,Overcast,0,2013-08-09 07:53:00